EW7554 Weather Reports


Display with metric or nautical units.
time (UTC)temp
F
wind
direction
speed
MPH
gust
MPH
rain 1hr
in
rain 24hr
in
rain mn
in
humidity
%
barometer
mb
20260510014545 56 333 8.0 14.0 0.00 0.00 0.00 34 1013.5
20260510013045 56 329 5.0 12.0 0.00 0.00 0.00 33 1013.4
20260510011536 57 329 8.0 14.0 0.00 0.00 0.00 32 1013.0
20260510010034 58 296 8.0 15.0 0.00 0.00 0.00 31 1012.9
20260510004532 58 296 5.0 17.0 0.00 0.00 0.00 31 1012.7
20260510003032 59 333 6.0 14.0 0.00 0.00 0.00 30 1012.5
20260510001529 59 315 7.0 18.0 0.00 0.00 0.00 30 1012.4
20260510000027 60 326 6.0 14.0 0.00 0.00 0.00 29 1012.2
20260509234535 60 325 6.0 15.0 0.00 0.00 0.00 29 1012.0
20260509233024 60 315 8.0 18.0 0.00 0.00 0.00 29 1011.9
20260509231523 60 332 5.0 15.0 0.00 0.00 0.00 28 1011.8
20260509230022 60 280 10.0 17.0 0.00 0.00 0.00 28 1011.6
20260509224520 60 322 7.0 20.0 0.00 0.00 0.00 28 1011.3
20260509223020 61 315 7.0 20.0 0.00 0.00 0.00 29 1011.2
20260509221520 60 331 9.0 19.0 0.00 0.00 0.00 28 1011.2
20260509220018 61 360 9.0 15.0 0.00 0.00 0.00 28 1011.1
20260509214520 61 355 6.0 16.0 0.00 0.00 0.00 29 1011.1
20260509213015 61 325 8.0 18.0 0.00 0.00 0.00 29 1010.9
20260509211515 60 297 6.0 19.0 0.00 0.00 0.00 30 1010.9
20260509210012 60 13 6.0 15.0 0.00 0.00 0.00 29 1010.9
20260509204512 60 343 9.0 21.0 0.00 0.00 0.00 30 1010.8
20260509203010 60 323 6.0 20.0 0.00 0.00 0.00 28 1010.7
20260509201510 60 333 7.0 17.0 0.00 0.00 0.00 30 1010.8
20260509200008 59 323 8.0 18.0 0.00 0.00 0.00 29 1010.8
20260509194507 60 317 7.0 18.0 0.00 0.00 0.00 31 1010.7
20260509193006 59 290 12.0 23.0 0.00 0.00 0.00 29 1010.6
20260509191506 59 271 6.0 16.0 0.00 0.00 0.00 34 1010.5
20260509190004 58 302 11.0 21.0 0.00 0.00 0.00 32 1010.6
20260509184655 58 304 10.0 18.0 0.00 0.00 0.00 35 1010.4
20260509183106 59 347 9.0 22.0 0.00 0.00 0.00 36 1010.3
20260509181556 58 305 8.0 16.0 0.00 0.00 0.00 36 1010.0
20260509180050 58 13 6.0 14.0 0.00 0.00 0.00 37 1009.9
20260509174547 57 321 12.0 19.0 0.00 0.00 0.00 37 1009.5